Wind_Speed
4 5 5 5 6 6 6 6 6 6 7 8 9 9 9 9 9 9 9 9 9 9 9 8 8 7 7 6 6 6 6 6 6 6 6 6 6 7 7 7 7 7 8
4 5 5 6 6 6 6 6 6 6 6 7 8 8 7 8 8 8 8 8 8 8 8 7 7 6 6 5 5 6 6 6 6 6 6 6 6 7 7 7 7 8 8
5 5 6 7 6 6 6 6 6 6 6 6 7 7 6 7 7 7 7 7 7 7 7 7 6 6 5 5 5 6 6 6 6 6 6 6 6 7 7 7 7 7 7
6 6 7 7 7 7 6 6 7 7 6 6 6 6 5 5 6 6 7 6 6 5 5 5 5 5 5 5 5 6 5 5 6 6 6 6 6 7 7 6 6 7 7
7 7 8 8 8 8 7 7 7 7 7 6 6 5 5 5 5 5 5 5 4 4 4 4 4 4 5 5 5 5 5 5 5 6 5 5 6 6 6 6 6 6 6
8 9 9 9 9 9 8 8 8 8 7 7 6 6 5 5 4 4 4 4 4 3 3 4 4 4 4 4 4 5 4 4 4 4 5 5 5 5 5 5 5 5 5
9 10 9 10 10 10 10 10 9 9 8 8 7 6 6 5 4 4 3 3 3 3 3 3 3 4 4 4 4 4 4 4 3 3 4 4 4 4 4 4 4 4 4
8 10 10 10 10 11 11 11 10 10 9 9 8 7 7 6 5 4 3 3 3 3 3 2 3 3 3 3 3 3 3 3 3 2 2 3 3 3 3 3 3 2 3
9 9 11 11 11 11 12 12 11 11 10 10 9 8 7 7 6 4 4 3 3 3 2 2 3 3 3 3 3 3 3 2 2 1 1 1 2 1 1 2 2 2 2
9 10 10 11 12 12 12 13 13 12 12 11 10 10 8 7 6 5 5 4 4 3 3 3 3 3 3 3 2 2 2 2 1 1 1 0 0 0 0 1 1 1 2
9 10 11 12 12 13 13 14 13 13 12 12 11 10 10 8 7 6 6 5 4 4 4 3 3 3 3 3 3 3 2 2 1 1 1 1 1 0 1 1 2 2 2
11 11 12 13 13 13 14 15 14 14 13 13 12 12 11 10 8 7 7 6 5 5 4 4 4 4 4 4 3 3 3 2 1 1 1 1 1 2 2 2 3 3 3
12 12 13 14 14 14 15 16 15 15 15 14 14 13 12 11 9 8 8 7 6 6 5 5 5 5 5 5 4 4 3 3 2 2 3 2 2 3 3 3 3 4 4
12 13 14 15 15 15 16 17 17 17 16 15 14 14 13 12 10 9 9 9 8 7 6 6 6 6 6 5 5 4 4 3 3 3 3 4 4 4 4 4 5 5 6
13 13 13 15 16 16 16 16 17 18 17 16 15 15 14 12 11 10 10 9 9 8 7 6 6 6 6 6 5 4 4 4 3 4 4 5 5 5 5 5 5 6 6
14 13 13 14 15 15 17 17 17 18 18 17 16 15 14 13 11 10 10 10 9 8 7 7 7 6 6 5 5 5 4 4 4 5 5 5 5 5 5 5 6 6 6
14 14 14 15 16 15 16 17 18 18 18 18 17 16 14 14 13 11 10 10 10 9 8 7 7 7 6 5 5 4 4 4 4 5 5 5 5 5 5 5 6 6 5
15 15 15 15 16 17 16 17 17 17 17 18 18 17 16 14 14 12 10 10 9 9 8 7 7 7 6 5 4 4 4 4 4 4 5 5 5 5 5 6 6 6 5
15 15 16 16 16 17 17 17 18 17 17 17 18 18 16 15 14 13 11 10 9 9 8 7 7 6 6 5 4 4 4 4 4 4 4 4 5 5 5 6 6 5 5
15 15 15 16 17 17 17 17 18 17 17 17 17 18 17 15 14 13 12 11 10 9 8 7 7 6 5 5 4 4 4 4 3 3 4 4 4 4 5 5 5 5 5
14 13 14 15 16 17 16 17 17 17 17 17 17 17 17 16 14 14 13 12 11 10 9 8 7 6 5 5 4 3 2 2 2 2 3 3 3 4 4 4 4 4 5
14 13 13 14 15 16 16 17 18 17 16 15 17 17 17 16 15 14 14 13 12 11 10 9 8 7 6 5 4 3 2 1 1 2 2 3 4 4 4 4 3 4 4
13 12 14 15 15 15 15 16 18 17 16 15 16 17 17 17 17 16 15 14 13 12 11 10 9 7 6 5 4 3 2 2 1 1 2 3 4 4 4 4 4 5 5
12 12 13 13 14 14 14 15 17 17 17 17 16 17 18 17 16 16 15 15 13 12 11 10 9 8 7 5 4 3 2 2 1 1 2 3 4 4 4 5 5 6 6
10 10 11 12 12 13 14 15 17 17 17 17 16 17 18 18 16 16 15 15 13 12 11 10 9 8 7 6 5 4 3 3 2 2 3 3 4 4 5 5 5 6 6
10 9 10 11 12 12 13 14 16 17 17 17 16 17 18 18 18 17 16 15 14 13 12 11 10 9 8 7 6 5 4 3 3 3 4 4 4 5 5 5 6 6 7
Wind_Direction
194 184 178 164 159 161 167 167 159 150 148 143 138 135 133 128 122 117 117 114 112 113 112 111 108 104 99 96 93 88 86 84 84 89 85 80 77 77 77 77 79 77 79
212 197 189 181 176 172 176 177 169 163 158 151 145 141 137 133 128 124 120 119 117 117 116 113 112 107 102 97 93 91 90 85 88 86 83 82 82 77 75 75 75 75 76
220 211 204 195 190 186 188 186 182 176 170 163 154 148 142 138 135 132 129 126 124 121 121 120 116 114 109 102 99 97 97 90 90 85 80 83 85 78 75 72 71 72 75
232 219 213 206 200 198 199 196 191 187 183 180 171 162 152 146 144 138 135 132 129 128 128 128 122 120 118 111 105 101 98 92 91 86 80 85 85 80 75 69 68 71 73
241 227 219 214 211 207 207 205 203 200 195 194 189 177 168 161 154 148 146 144 138 134 133 138 135 130 129 126 117 110 103 95 98 93 87 84 82 80 77 71 70 70 72
245 234 226 220 217 213 215 214 211 210 207 205 202 190 182 179 167 158 156 158 154 146 144 147 140 135 135 135 128 121 116 109 96 89 88 86 83 80 73 66 70 69 71
251 237 232 226 220 218 220 219 218 218 217 214 210 202 195 190 182 175 173 167 165 162 157 155 147 144 144 139 133 128 120 108 102 92 92 81 80 79 70 70 70 67 68
259 242 236 231 226 224 225 224 223 223 221 220 215 210 206 201 197 194 191 183 178 171 164 165 161 158 155 151 143 133 125 118 110 101 95 85 80 78 71 67 55 59 68
263 249 240 236 232 227 226 226 226 226 224 223 220 215 213 211 207 205 203 200 200 197 188 182 175 176 172 168 159 148 137 126 123 127 108 95 79 71 62 50 44 53 48
263 253 242 238 233 229 226 226 227 227 227 225 224 220 217 217 217 217 214 216 217 214 207 196 190 188 187 185 181 172 161 156 149 145 153 136 110 80 35 353 2 18 13
267 251 242 237 233 231 228 225 226 229 229 228 228 226 224 224 224 224 224 230 233 226 218 209 205 199 195 196 202 204 202 209 195 208 233 268 261 261 291 306 308 313 325
270 253 241 235 234 234 231 227 228 229 230 230 231 230 228 229 231 229 229 233 238 239 231 223 217 211 207 213 219 219 217 228 243 241 269 303 298 290 291 294 293 298 305
269 256 246 238 237 236 232 229 229 232 231 232 233 232 230 232 235 237 236 237 241 244 239 228 226 223 219 220 226 229 231 240 250 259 271 281 296 296 289 285 283 286 293
272 259 248 240 241 240 236 231 232 233 235 234 235 234 235 236 237 241 241 240 241 243 241 237 228 224 220 221 224 229 239 249 269 278 289 290 292 292 291 289 285 285 289
276 262 250 241 241 242 239 237 234 229 232 234 236 236 238 239 243 244 242 242 242 240 238 232 225 220 219 221 222 225 239 248 259 272 279 284 282 284 285 288 291 287 288
276 263 252 245 241 242 243 242 233 229 228 232 237 239 240 242 245 244 245 244 239 238 239 230 226 221 217 221 221 233 243 241 248 265 274 279 283 286 293 295 293 289 291
273 265 257 246 242 244 245 243 234 231 229 231 234 240 244 244 245 244 245 244 238 239 238 233 225 216 213 219 226 237 246 249 253 263 270 278 282 282 288 299 301 293 293
274 266 258 247 245 244 243 239 236 234 232 231 234 239 242 246 243 241 242 241 238 239 235 227 217 212 215 223 233 245 252 257 265 270 274 278 283 288 297 300 300 298 292
278 272 259 248 245 242 241 237 232 234 232 234 235 236 239 240 240 241 240 241 237 233 228 217 210 211 215 222 234 243 252 259 267 274 279 284 289 294 300 303 303 300 297
284 271 258 250 243 243 242 237 233 236 238 238 237 235 234 235 238 239 237 238 230 225 218 213 211 211 213 217 226 237 247 256 271 284 292 302 312 308 310 314 311 307 310
284 272 261 253 246 246 243 237 237 239 240 237 235 235 233 232 233 234 234 232 222 217 216 214 212 209 211 215 225 230 238 254 274 292 302 313 318 327 327 323 316 314 309
282 271 260 256 252 252 246 238 235 235 236 235 235 233 231 230 230 230 228 225 219 216 215 212 211 212 215 218 219 223 226 252 276 314 326 321 328 334 339 345 346 335 320
279 271 263 258 255 254 247 237 234 230 230 233 237 234 230 230 230 228 225 221 216 216 215 214 214 214 217 219 222 217 222 237 260 327 341 339 342 348 351 355 355 350 340
271 264 261 258 258 254 245 236 233 230 230 233 236 233 229 227 226 224 221 217 215 215 216 216 217 219 218 212 210 207 206 212 227 280 335 339 344 348 350 354 355 356 354
263 261 258 256 256 254 245 234 232 231 231 232 233 230 226 224 222 219 218 215 214 216 214 214 219 218 215 212 213 216 225 235 255 287 317 329 336 338 340 348 355 350 348
259 261 258 256 251 250 242 235 232 230 231 232 231 226 224 220 217 216 217 214 214 216 217 218 220 218 218 219 223 230 242 253 268 280 298 309 316 323 328 337 342 340 339
Height
5877 5877 5878 5879 5880 5880 5881 5881 5881 5881 5882 5882 5882 5882 5882 5882 5883 5883 5883 5884 5884 5884 5885 5886 5886 5887 5887 5887 5887 5888 5888 5889 5889 5889 5889 5889 5890 5890 5890 5890 5890 5890 5890
5878 5878 5878 5879 5880 5881 5881 5882 5882 5882 5882 5883 5883 5883 5884 5884 5884 5884 5885 5885 5885 5886 5886 5887 5887 5888 5888 5888 5888 5889 5889 5889 5890 5890 5890 5890 5891 5891 5891 5891 5891 5892 5892
5877 5878 5878 5879 5880 5881 5882 5882 5882 5883 5883 5884 5884 5884 5885 5885 5885 5885 5886 5886 5887 5887 5888 5888 5889 5889 5889 5889 5890 5890 5890 5891 5891 5891 5891 5891 5892 5892 5892 5893 5893 5893 5893
5877 5878 5878 5879 5880 5881 5882 5882 5883 5884 5884 5884 5885 5885 5885 5886 5886 5887 5887 5888 5888 5888 5889 5889 5890 5890 5890 5890 5891 5891 5892 5892 5892 5892 5893 5893 5893 5893 5894 5894 5894 5894 5894
5876 5877 5878 5879 5880 5881 5882 5882 5883 5884 5884 5885 5885 5886 5886 5887 5887 5888 5888 5888 5889 5889 5890 5890 5890 5891 5891 5891 5892 5892 5893 5893 5893 5893 5894 5894 5894 5894 5895 5895 5895 5896 5896
5876 5876 5877 5878 5879 5880 5881 5882 5883 5884 5885 5885 5886 5886 5886 5887 5888 5888 5888 5889 5889 5890 5890 5891 5891 5891 5892 5892 5893 5893 5893 5894 5894 5894 5895 5895 5895 5895 5896 5896 5896 5897 5897
5875 5875 5876 5877 5879 5880 5881 5882 5883 5884 5885 5885 5886 5886 5887 5887 5888 5888 5889 5889 5890 5890 5891 5891 5892 5892 5892 5893 5893 5894 5894 5895 5895 5895 5895 5896 5896 5896 5897 5897 5897 5898 5898
5873 5874 5875 5876 5877 5879 5880 5881 5882 5883 5884 5885 5886 5886 5887 5888 5888 5888 5889 5890 5890 5891 5891 5892 5892 5892 5893 5893 5894 5894 5895 5896 5896 5896 5896 5897 5897 5897 5898 5898 5898 5899 5899
5872 5873 5873 5875 5876 5877 5879 5880 5882 5883 5884 5885 5885 5886 5887 5888 5888 5888 5889 5890 5890 5891 5892 5892 5892 5893 5893 5894 5894 5895 5895 5896 5896 5896 5897 5897 5897 5898 5898 5899 5899 5899 5900
5870 5871 5872 5873 5874 5876 5878 5879 5881 5882 5883 5884 5885 5886 5887 5887 5888 5888 5889 5890 5891 5891 5892 5892 5892 5893 5893 5894 5895 5895 5896 5896 5897 5897 5897 5897 5898 5898 5899 5899 5900 5900 5900
5869 5869 5870 5871 5873 5874 5876 5878 5879 5881 5882 5883 5885 5886 5887 5887 5888 5888 5889 5890 5890 5891 5891 5892 5893 5893 5893 5894 5895 5895 5896 5896 5896 5896 5897 5898 5898 5898 5899 5900 5900 5900 5901
5866 5866 5868 5869 5871 5873 5874 5876 5878 5879 5881 5882 5884 5885 5886 5887 5888 5888 5889 5890 5890 5891 5891 5892 5892 5893 5893 5894 5895 5895 5896 5896 5897 5897 5897 5898 5898 5899 5899 5900 5900 5900 5901
5864 5864 5866 5867 5869 5870 5872 5874 5876 5878 5879 5881 5883 5884 5885 5886 5887 5888 5888 5889 5890 5890 5891 5892 5892 5893 5893 5894 5895 5895 5896 5897 5897 5897 5897 5898 5898 5899 5899 5900 5900 5900 5901
5861 5862 5863 5864 5866 5868 5870 5872 5874 5876 5878 5879 5881 5882 5884 5885 5886 5887 5888 5889 5889 5890 5891 5891 5892 5892 5893 5894 5894 5895 5896 5897 5897 5897 5897 5898 5898 5898 5899 5899 5900 5900 5900
5859 5860 5861 5862 5863 5865 5867 5869 5871 5873 5876 5877 5879 5881 5882 5884 5885 5886 5887 5888 5888 5889 5890 5890 5891 5891 5892 5893 5893 5894 5895 5896 5897 5896 5897 5897 5898 5898 5898 5899 5899 5899 5900
5857 5857 5858 5859 5860 5862 5864 5866 5868 5870 5873 5875 5877 5879 5881 5882 5883 5884 5885 5886 5887 5888 5889 5889 5890 5891 5892 5892 5893 5894 5895 5895 5896 5896 5896 5897 5897 5897 5898 5898 5898 5898 5899
5854 5854 5855 5856 5857 5859 5861 5863 5865 5867 5870 5873 5875 5877 5879 5880 5882 5883 5884 5885 5886 5887 5888 5889 5889 5890 5891 5892 5893 5893 5894 5895 5895 5896 5896 5896 5896 5896 5897 5897 5897 5898 5898
5851 5851 5852 5853 5855 5856 5858 5860 5862 5865 5867 5870 5872 5874 5876 5878 5880 5882 5883 5884 5885 5886 5887 5888 5889 5890 5890 5891 5892 5892 5893 5894 5894 5895 5895 5895 5895 5896 5896 5896 5896 5897 5897
5847 5848 5848 5850 5851 5853 5855 5857 5860 5862 5864 5867 5870 5872 5874 5876 5878 5880 5882 5883 5884 5885 5886 5887 5888 5889 5890 5891 5891 5892 5893 5893 5894 5894 5894 5894 5895 5895 5895 5895 5895 5896 5896
5844 5845 5845 5846 5848 5850 5852 5854 5857 5859 5862 5864 5867 5869 5871 5874 5876 5878 5880 5881 5883 5884 5885 5886 5887 5888 5889 5890 5891 5891 5892 5892 5893 5893 5894 5894 5894 5894 5894 5894 5894 5894 5895
5841 5842 5842 5843 5845 5847 5849 5851 5854 5856 5859 5861 5864 5867 5869 5871 5874 5876 5878 5880 5881 5883 5884 5886 5887 5888 5888 5889 5890 5891 5891 5892 5892 5893 5893 5893 5893 5893 5893 5893 5893 5893 5894
5838 5839 5840 5841 5842 5844 5846 5848 5851 5853 5856 5858 5861 5864 5866 5869 5872 5874 5876 5878 5880 5882 5883 5885 5886 5887 5888 5889 5889 5890 5891 5892 5892 5892 5893 5893 5893 5893 5893 5893 5893 5893 5893
5836 5836 5837 5838 5840 5841 5843 5845 5848 5851 5854 5856 5859 5861 5864 5866 5869 5871 5874 5876 5878 5880 5882 5883 5885 5886 5887 5888 5889 5890 5891 5891 5892 5892 5892 5892 5892 5892 5892 5892 5892 5892 5892
5833 5833 5834 5836 5837 5839 5840 5843 5845 5848 5851 5854 5856 5859 5861 5864 5866 5869 5871 5874 5876 5878 5880 5882 5884 5885 5886 5887 5888 5889 5890 5891 5891 5892 5892 5892 5892 5892 5892 5891 5891 5891 5891
5830 5831 5832 5833 5834 5836 5838 5840 5842 5846 5848 5851 5853 5856 5858 5862 5864 5867 5869 5872 5875 5877 5879 5881 5883 5884 5885 5886 5888 5889 5889 5890 5890 5891 5891 5892 5891 5891 5891 5891 5891 5891 5890
5828 5829 5830 5831 5832 5833 5835 5837 5839 5842 5845 5848 5850 5853 5856 5859 5862 5865 5868 5870 5873 5875 5877 5879 5881 5883 5884 5885 5887 5888 5889 5889 5890 5890 5890 5891 5891 5891 5890 5890 5890 5890 5889